South St. Paul, MN

9:13 AM CDT on May 26, 2017 (GMT -0500)
South Saint Paul Municipal-Fleming

Weather History for KSGS - February, 2013

Change the Weather History Date:

Wednesday, February 20, 2013

  Actual Average (KSTP) Record (KSTP)
Temperature  
Mean Temperature 8 °F -  
Max Temperature 17 °F 30 °F 54 °F (2017)
Min Temperature 0 °F 16 °F -9 °F (2008)
Degree Days  
Heating Degree Days 56    
Moisture  
Dew Point -1 °F    
Average Humidity 64    
Maximum Humidity 74    
Minimum Humidity 53    
Precipitation  
Precipitation 0.00 in - - ()
Sea Level Pressure  
Sea Level Pressure 30.41 in    
Wind  
Wind Speed 5 mph (North)    
Max Wind Speed 8 mph    
Max Gust Speed -    
Visibility 10 miles    
Events      
Averages and records for this station are not official NWS values.
T = Trace of Precipitation, MM = Missing Value Source: NWS Daily Summary

Daily Weather History Graph

Daily Weather History Graph

Search for Another Location

Airport or City:

Trip Planner

Search our weather history database for the weather conditions in past years. The results will help you decide how hot, cold, wet, or windy it might be!

Date:

Astronomy

Feb. 20, 2013 Rise Set
Actual Time 7:04 AM CST 5:47 PM CST
Civil Twilight 6:34 AM CST 6:17 PM CST
Nautical Twilight 6:00 AM CST 6:51 PM CST
Astronomical Twilight 5:26 AM CST 7:25 PM CST
Moon 1:01 PM CST (2/20) 3:32 AM CST (2/20)
Length of Visible Light 11h 42m
Length of Day
10h 43m
Waxing Gibbous, 76% of the Moon is Illuminated
Feb 20
Waxing Gibbous
Feb 25
Full
Mar 4
Last Quarter
Mar 11
New
Mar 19
First Quarter

Hourly Weather History & Observations

Time (CST) Temp. Windchill Dew Point Humidity Pressure Visibility Wind Dir Wind Speed Gust Speed Precip Events Conditions
12:12 AM 4.6 °F -8.5 °F -6.2 °F 61% 30.35 in 10.0 mi NW 8.1 mph - N/A   Clear
12:32 AM 4.1 °F -8.0 °F -6.2 °F 63% 30.36 in 10.0 mi NNW 6.9 mph - N/A   Clear
12:52 AM 4.1 °F -8.0 °F -6.2 °F 63% 30.37 in 10.0 mi NNW 6.9 mph - N/A   Clear
1:12 AM 3.7 °F -8.4 °F -6.2 °F 64% 30.37 in 10.0 mi NNW 6.9 mph - N/A   Clear
1:32 AM 3.4 °F -10.0 °F -6.3 °F 64% 30.39 in 10.0 mi NNW 8.1 mph - N/A   Clear
1:52 AM 3.6 °F -5.7 °F -6.0 °F 65% 30.39 in 10.0 mi North 4.6 mph - N/A   Clear
2:12 AM 3.2 °F -9.1 °F -6.2 °F 65% 30.38 in 10.0 mi North 6.9 mph - N/A   Clear
2:32 AM 3.0 °F -9.3 °F -6.2 °F 66% 30.39 in 10.0 mi NNW 6.9 mph - N/A   Clear
2:52 AM 3.0 °F -10.5 °F -6.2 °F 66% 30.40 in 10.0 mi NNW 8.1 mph - N/A   Clear
3:32 AM 2.7 °F -9.7 °F -6.2 °F 67% 30.41 in 10.0 mi NNW 6.9 mph - N/A   Clear
3:52 AM 2.3 °F -8.8 °F -6.0 °F 68% 30.40 in 10.0 mi NNW 5.8 mph - N/A   Clear
4:12 AM 2.1 °F -9.0 °F -6.2 °F 68% 30.41 in 10.0 mi NNW 5.8 mph - N/A   Clear
4:32 AM 2.1 °F -7.4 °F -6.0 °F 69% 30.42 in 10.0 mi NW 4.6 mph - N/A   Clear
4:52 AM 1.8 °F -7.8 °F -6.5 °F 68% 30.42 in 10.0 mi NNW 4.6 mph - N/A   Clear
5:12 AM 1.6 °F -8.0 °F -6.3 °F 69% 30.42 in 10.0 mi NNW 4.6 mph - N/A   Clear
5:32 AM 1.4 °F -8.3 °F -6.3 °F 70% 30.43 in 10.0 mi NNW 4.6 mph - N/A   Clear
5:52 AM 1.4 °F -6.2 °F -6.5 °F 69% 30.42 in 10.0 mi North 3.5 mph - N/A   Clear
6:12 AM 1.0 °F -8.7 °F -6.5 °F 71% 30.43 in 10.0 mi NNW 4.6 mph - N/A   Clear
6:32 AM 0.7 °F -9.1 °F -6.5 °F 72% 30.43 in 10.0 mi NNW 4.6 mph - N/A   Clear
6:52 AM 0.5 °F -7.3 °F -6.7 °F 72% 30.44 in 10.0 mi NNW 3.5 mph - N/A   Clear
7:12 AM 0.3 °F -9.5 °F -6.7 °F 72% 30.45 in 10.0 mi NNW 4.6 mph - N/A   Clear
7:32 AM 0.1 °F -9.7 °F -6.5 °F 74% 30.45 in 10.0 mi North 4.6 mph - N/A   Clear
7:52 AM 0.9 °F -8.9 °F -6.3 °F 72% 30.45 in 10.0 mi NNE 4.6 mph - N/A   Clear
8:12 AM 1.0 °F -11.7 °F -6.3 °F 71% 30.45 in 10.0 mi North 6.9 mph - N/A   Clear
8:32 AM 0.9 °F -10.5 °F -6.7 °F 71% 30.45 in 10.0 mi North 5.8 mph - N/A   Clear
8:52 AM 1.6 °F -8.0 °F -6.2 °F 70% 30.44 in 10.0 mi North 4.6 mph - N/A   Clear
9:12 AM 3.0 °F -6.4 °F -5.1 °F 69% 30.44 in 10.0 mi NNE 4.6 mph - N/A   Clear
9:32 AM 3.6 °F -8.7 °F -4.9 °F 68% 30.45 in 10.0 mi ENE 6.9 mph - N/A   Clear
9:52 AM 3.7 °F -7.1 °F -4.0 °F 70% 30.45 in 10.0 mi ENE 5.8 mph - N/A   Clear
10:12 AM 4.1 °F -5.1 °F -3.1 °F 72% 30.45 in 10.0 mi NNE 4.6 mph - N/A   Clear
10:32 AM 4.5 °F - -3.5 °F 70% 30.45 in 10.0 mi Calm Calm - N/A   Clear
10:52 AM 5.5 °F - -2.6 °F 69% 30.45 in 10.0 mi Calm Calm - N/A   Clear
11:12 AM 6.4 °F - -2.4 °F 67% 30.45 in 10.0 mi Calm Calm - N/A   Clear
11:32 AM 7.3 °F - -1.5 °F 67% 30.45 in 10.0 mi Calm Calm - N/A   Clear
11:52 AM 8.2 °F - -1.3 °F 65% 30.45 in 10.0 mi Calm Calm - N/A   Clear
12:12 PM 9.3 °F - -0.4 °F 65% 30.44 in 10.0 mi Calm Calm - N/A   Clear
12:32 PM 10.6 °F 4.3 °F 0.3 °F 63% 30.44 in 10.0 mi West 3.5 mph - N/A   Clear
12:52 PM 11.5 °F - 0.7 °F 62% 30.43 in 10.0 mi Calm Calm - N/A   Clear
1:12 PM 12.7 °F - 1.4 °F 61% 30.43 in 10.0 mi Calm Calm - N/A   Clear
1:32 PM 13.6 °F - 1.4 °F 58% 30.44 in 10.0 mi Calm Calm - N/A   Clear
1:52 PM 15.6 °F - 2.1 °F 55% 30.44 in 10.0 mi Calm Calm - N/A   Clear
2:12 PM 15.8 °F - 3.2 °F 58% 30.44 in 10.0 mi Calm Calm - N/A   Clear
2:32 PM 16.0 °F 10.4 °F 3.4 °F 58% 30.44 in 10.0 mi ENE 3.5 mph - N/A   Clear
2:52 PM 16.7 °F 9.6 °F 3.6 °F 56% 30.43 in 10.0 mi NNE 4.6 mph - N/A   Clear
3:12 PM 16.9 °F 8.5 °F 3.2 °F 55% 30.43 in 10.0 mi North 5.8 mph - N/A   Clear
3:32 PM 17.4 °F 12.1 °F 3.4 °F 54% 30.42 in 10.0 mi North 3.5 mph - N/A   Clear
3:52 PM 17.4 °F 12.1 °F 3.0 °F 53% 30.41 in 10.0 mi North 3.5 mph - N/A   Clear
4:12 PM 17.6 °F 10.7 °F 3.2 °F 53% 30.41 in 10.0 mi North 4.6 mph - N/A   Clear
4:32 PM 17.4 °F 9.1 °F 3.2 °F 54% 30.41 in 10.0 mi NE 5.8 mph - N/A   Clear
4:52 PM 16.9 °F 8.5 °F 3.0 °F 55% 30.41 in 10.0 mi NE 5.8 mph - N/A   Clear
5:12 PM 16.0 °F 7.4 °F 2.3 °F 55% 30.41 in 10.0 mi NE 5.8 mph - N/A   Clear
5:32 PM 15.8 °F 10.2 °F 2.3 °F 55% 30.41 in 10.0 mi NE 3.5 mph - N/A   Clear
5:52 PM 15.6 °F 7.0 °F 2.3 °F 56% 30.40 in 10.0 mi NE 5.8 mph - N/A   Clear
6:12 PM 15.6 °F 7.0 °F 2.8 °F 57% 30.39 in 10.0 mi ENE 5.8 mph - N/A   Clear
6:32 PM 15.8 °F 10.2 °F 2.5 °F 56% 30.40 in 10.0 mi NNE 3.5 mph - N/A   Clear
6:52 PM 15.8 °F - 2.7 °F 56% 30.40 in 10.0 mi Calm Calm - N/A   Clear
7:12 PM 15.4 °F - 3.0 °F 58% 30.39 in 10.0 mi Calm Calm - N/A   Clear
7:32 PM 15.4 °F - 3.0 °F 58% 30.40 in 10.0 mi Calm Calm - N/A   Clear
7:52 PM 14.9 °F - 3.2 °F 60% 30.39 in 10.0 mi Calm Calm - N/A   Clear
8:12 PM 14.9 °F - 3.0 °F 59% 30.39 in 10.0 mi Calm Calm - N/A   Clear
8:32 PM 14.9 °F - 3.2 °F 60% 30.38 in 10.0 mi Calm Calm - N/A   Clear
8:52 PM 14.7 °F - 3.2 °F 60% 30.38 in 10.0 mi Calm Calm - N/A   Clear
9:12 PM 14.0 °F 8.2 °F 3.2 °F 62% 30.39 in 10.0 mi WSW 3.5 mph - N/A   Clear
9:32 PM 13.1 °F - 3.4 °F 65% 30.39 in 10.0 mi Calm Calm - N/A   Clear
9:52 PM 14.2 °F - 3.4 °F 62% 30.39 in 10.0 mi Calm Calm - N/A   Clear
10:32 PM 14.0 °F - 4.5 °F 66% 30.39 in 10.0 mi Calm Calm - N/A   Clear
10:52 PM 13.3 °F - 4.3 °F 67% 30.39 in 10.0 mi Calm Calm - N/A   Clear
11:12 PM 13.1 °F - 3.9 °F 67% 30.39 in 10.0 mi Calm Calm - N/A   Clear
11:32 PM 13.6 °F - 3.4 °F 64% 30.39 in 10.0 mi Calm Calm - N/A   Clear
11:52 PM 13.5 °F 7.5 °F 3.6 °F 65% 30.39 in 10.0 mi NE 3.5 mph - N/A   Clear